Weather Roundup
Issued by NWS Chicago, IL

Home | Current Version | Previous Version | Text Only | Print | Product List | Glossary Off
Versions: 1 2 3 4 5 6 7 8 9 10 11 12 13 14 15 16 17 18 19 20 21 22 23 24 25 26 27 28 29 30 31 32 33 34 35 36 37 38 39 40 41 42 43 44 45 46 47 48 49 50

000
NZUS59 KLOT 260210
HRRLOT

CHICAGO AREA WEATHER ROUNDUP
NATIONAL WEATHER SERVICE CHICAGO/ROMEOVILLE IL
800 PM CST SUN JAN 25 2015

NOTE: "FAIR" INDICATES FEW OR NO CLOUDS BELOW 12,000 FEET WITH NO
SIGNIFICANT WEATHER AND/OR OBSTRUCTIONS TO VISIBILITY.

* THESE STATIONS ARE NOT UNDER NWS QUALITY CONTROL. THEY ALSO MAY NOT
  REPORT WEATHER SUCH AS PRECIPITATION OR FOG.

ILZ005-006-012>014-019>023-260300-
NORTHEAST ILLINOIS

CITY           SKY/WX    TMP DP  RH WIND       PRES   REMARKS
OHARE          PTCLDY    26  16  65 NE10      29.97R WCI  16
MIDWAY         MOCLDY    28  18  66 NE16      29.96R WCI  16
AURORA         CLOUDY    26  15  63 N17G23    29.98R WCI  13
LANSING*       CLOUDY    27  21  77 NE10G17   29.94F WCI  17
JOLIET*        CLOUDY    27  18  69 N12       29.97R WCI  17
WAUKEGAN       PTCLDY    24  14  65 N8        29.99R WCI  15
DUPAGE AIRPORT MOCLDY    22  14  71 N13       29.96R WCI  10
WHEELING       CLEAR     26  14  60 NE13      30.00R WCI  15
KANKAKEE*      MIX PCPN  28  24  84 NE15G21   29.93F WCI  16
MORRIS*        CLOUDY    27  22  82 N8        29.96R WCI  19
LEWIS AIRPORT* MOCLDY    27  19  71 NE16      29.96R WCI  14
NORTHERLY IS     N/A     27  19  72 NE21        N/A  WCI  13
$$

WIZ051-052-058>065-066-070>072-260300-
SOUTHEAST WISCONSIN

CITY           SKY/WX    TMP DP  RH WIND       PRES   REMARKS
MILWAUKEE      PTCLDY    25  13  60 NE12G22   30.02R WCI  14
KENOSHA*       CLEAR     23  15  71 N7        30.00R WCI  15
RACINE*        PTCLDY    25  14  63 NE13      30.03R WCI  14
BURLINGTON     CLEAR     17  11  76 N6        30.01S WCI   9
WAUKESHA       CLEAR     18  10  73 N7        30.03R WCI   8
WEST BEND      PTCLDY    18  10  73 N6        30.03S WCI   9
$$

INZ001>003-010>013-019-020-260300-
NORTHWEST INDIANA

CITY           SKY/WX    TMP DP  RH WIND       PRES   REMARKS
GARY*          NOT AVBL
MICHIGAN CITY* NOT AVBL
RENSSELAER*    NOT AVBL
VALPARAISO     CLOUDY    24  19  81 NE9       29.93S WCI  14
$$

LMZ740>746-260300-
SOUTHERN LAKE MICHIGAN

STATION/POSITION TIME  SKY/WX   TEMP WIND        PRES    VSBY
                                AIR  DIR/SP/G
                 (UTC)          (F)  (DEG/KT/KT) (MB)    (MI)
HARRISON CRIB    0200            27   40/ 20/ 25   N/A
BURNHAM HARBOR   0200            27   30/ 15/ 20   N/A
CALUMET HARBOR   0200            27   30/ 14/ 20   N/A
BURNS HARBOR     NOT AVBL
MICHIGAN CITY    0200            25   20/ 18/ 20   N/A
$$

ABBREVIATIONS USED IN REMARKS
   TC - TEMPERATURE IN CELSIUS
  WCI - WIND CHILL INDEX
   HX - HEAT INDEX
  VSB - VISIBILITY
$$


USA.gov is the U.S. government's official web portal to all federal, state and local government web resources and services.